Time,TemperatureF,DewpointF,PressureIn,WindDirection,WindDirectionDegrees,WindSpeedMPH,WindSpeedGustMPH,Humidity,HourlyPrecipIn,Conditions,Clouds,dailyrainin,SoftwareType,DateUTC
2014-01-02 00:01:00,5.0,-9.2,30.21,North,0,16.0,16.0,51,0.00,,,0.00,meteohub,2014-01-02 06:01:00,
2014-01-02 00:06:00,5.0,-9.6,30.20,North,0,17.0,17.0,50,0.00,,,0.00,meteohub,2014-01-02 06:06:00,
2014-01-02 00:11:00,5.0,-9.6,30.20,North,0,15.0,17.0,50,0.00,,,0.00,meteohub,2014-01-02 06:11:00,
2014-01-02 00:16:00,5.0,-9.2,30.19,North,0,13.0,17.0,51,0.00,,,0.00,meteohub,2014-01-02 06:16:00,
2014-01-02 00:21:00,4.8,-8.5,30.19,North,0,14.0,17.0,53,0.00,,,0.00,meteohub,2014-01-02 06:21:00,
2014-01-02 00:26:00,4.8,-8.9,30.19,NNW,338,15.0,18.0,52,0.00,,,0.00,meteohub,2014-01-02 06:26:00,
2014-01-02 00:31:00,5.0,-9.2,30.19,North,0,14.0,18.0,51,0.00,,,0.00,meteohub,2014-01-02 06:31:00,
2014-01-02 00:36:00,5.0,-8.9,30.19,North,0,14.0,16.0,52,0.00,,,0.00,meteohub,2014-01-02 06:36:00,
2014-01-02 00:41:00,4.8,-8.5,30.19,North,0,13.0,16.0,53,0.00,,,0.00,meteohub,2014-01-02 06:41:00,
2014-01-02 00:47:00,4.8,-8.5,30.19,North,0,12.0,16.0,53,0.00,,,0.00,meteohub,2014-01-02 06:47:00,
2014-01-02 00:52:00,4.8,-8.5,30.18,North,0,10.0,14.0,53,0.00,,,0.00,meteohub,2014-01-02 06:52:00,
2014-01-02 00:57:00,4.8,-8.9,30.18,North,0,15.0,15.0,52,0.00,,,0.00,meteohub,2014-01-02 06:57:00,
2014-01-02 01:02:00,4.8,-8.9,30.18,North,0,14.0,15.0,52,0.00,,,0.00,meteohub,2014-01-02 07:02:00,
2014-01-02 01:07:00,4.8,-8.9,30.18,NNE,23,14.0,15.0,52,0.00,,,0.00,meteohub,2014-01-02 07:07:00,
2014-01-02 01:09:00,4.8,-8.9,30.18,North,0,15.0,15.0,52,0.00,,,0.00,meteohub,2014-01-02 07:09:00,
2014-01-02 01:14:00,5.0,-8.9,30.18,NNW,338,13.0,15.0,52,0.00,,,0.00,meteohub,2014-01-02 07:14:00,
2014-01-02 01:19:00,5.0,-8.3,30.18,North,0,14.0,15.0,53,0.00,,,0.00,meteohub,2014-01-02 07:19:00,
2014-01-02 01:24:00,4.8,-8.5,30.18,NNE,23,11.0,15.0,53,0.00,,,0.00,meteohub,2014-01-02 07:24:00,
2014-01-02 01:29:00,4.8,-8.5,30.18,North,0,14.0,15.0,53,0.00,,,0.00,meteohub,2014-01-02 07:29:00,
2014-01-02 01:34:00,4.8,-8.5,30.18,North,0,14.0,15.0,53,0.00,,,0.00,meteohub,2014-01-02 07:34:00,
2014-01-02 01:39:00,5.0,-8.3,30.18,North,0,12.0,14.0,53,0.00,,,0.00,meteohub,2014-01-02 07:39:00,
2014-01-02 01:44:00,5.0,-8.3,30.18,NNW,338,13.0,14.0,53,0.00,,,0.00,meteohub,2014-01-02 07:44:00,
2014-01-02 01:49:00,5.0,-8.3,30.19,North,0,11.0,15.0,53,0.00,,,0.00,meteohub,2014-01-02 07:49:00,
2014-01-02 01:54:00,4.8,-8.5,30.19,North,0,15.0,15.0,53,0.00,,,0.00,meteohub,2014-01-02 07:54:00,
2014-01-02 02:00:00,4.8,-8.5,30.19,North,0,13.0,15.0,53,0.00,,,0.00,meteohub,2014-01-02 08:00:00,
2014-01-02 02:05:00,5.0,-8.3,30.18,North,0,16.0,16.0,53,0.00,,,0.00,meteohub,2014-01-02 08:05:00,
2014-01-02 02:10:00,5.0,-8.0,30.19,North,0,13.0,16.0,54,0.00,,,0.00,meteohub,2014-01-02 08:10:00,
2014-01-02 02:15:00,5.0,-8.0,30.18,North,0,15.0,16.0,54,0.00,,,0.00,meteohub,2014-01-02 08:15:00,
2014-01-02 02:20:00,5.0,-8.0,30.18,North,0,13.0,15.0,54,0.00,,,0.00,meteohub,2014-01-02 08:20:00,
2014-01-02 02:25:00,5.0,-8.0,30.19,NNW,338,11.0,15.0,54,0.00,,,0.00,meteohub,2014-01-02 08:25:00,
2014-01-02 02:30:00,5.0,-8.0,30.18,North,0,11.0,15.0,54,0.00,,,0.00,meteohub,2014-01-02 08:30:00,
2014-01-02 02:35:00,5.0,-7.6,30.19,North,0,11.0,15.0,55,0.00,,,0.00,meteohub,2014-01-02 08:35:00,
2014-01-02 02:40:00,5.0,-8.0,30.18,North,0,11.0,15.0,54,0.00,,,0.00,meteohub,2014-01-02 08:40:00,
2014-01-02 02:45:00,5.0,-7.6,30.18,North,0,13.0,15.0,55,0.00,,,0.00,meteohub,2014-01-02 08:45:00,
2014-01-02 02:50:00,5.0,-7.6,30.18,North,0,13.0,16.0,55,0.00,,,0.00,meteohub,2014-01-02 08:50:00,
2014-01-02 02:55:00,5.0,-7.6,30.18,North,0,11.0,16.0,55,0.00,,,0.00,meteohub,2014-01-02 08:55:00,
2014-01-02 03:00:00,5.2,-7.4,30.18,North,0,11.0,15.0,55,0.00,,,0.00,meteohub,2014-01-02 09:00:00,
2014-01-02 03:05:00,5.2,-7.1,30.18,North,0,7.0,15.0,56,0.00,,,0.00,meteohub,2014-01-02 09:05:00,
2014-01-02 03:11:00,5.0,-7.6,30.18,North,0,8.0,11.0,55,0.00,,,0.00,meteohub,2014-01-02 09:11:00,
2014-01-02 03:16:00,5.0,-7.6,30.18,North,0,10.0,11.0,55,0.00,,,0.00,meteohub,2014-01-02 09:16:00,
2014-01-02 03:21:00,5.0,-7.6,30.18,North,0,11.0,11.0,55,0.00,,,0.00,meteohub,2014-01-02 09:21:00,
2014-01-02 03:26:00,5.0,-7.6,30.17,North,0,11.0,14.0,55,0.00,,,0.00,meteohub,2014-01-02 09:26:00,
2014-01-02 03:31:00,5.0,-7.6,30.17,NNW,338,11.0,14.0,55,0.00,,,0.00,meteohub,2014-01-02 09:31:00,
2014-01-02 03:36:00,5.2,-7.4,30.17,North,0,12.0,14.0,55,0.00,,,0.00,meteohub,2014-01-02 09:36:00,
2014-01-02 03:41:00,5.2,-7.1,30.17,North,0,10.0,13.0,56,0.00,,,0.00,meteohub,2014-01-02 09:41:00,
2014-01-02 03:46:00,5.2,-7.1,30.17,NW,315,10.0,13.0,56,0.00,,,0.00,meteohub,2014-01-02 09:46:00,
2014-01-02 03:51:00,5.2,-7.1,30.17,North,0,12.0,13.0,56,0.00,,,0.00,meteohub,2014-01-02 09:51:00,
2014-01-02 03:56:00,5.2,-7.4,30.17,North,0,12.0,12.0,55,0.00,,,0.00,meteohub,2014-01-02 09:56:00,
2014-01-02 04:01:00,5.2,-7.1,30.17,North,0,10.0,14.0,56,0.00,,,0.00,meteohub,2014-01-02 10:01:00,
2014-01-02 04:06:00,5.2,-7.1,30.17,North,0,9.0,14.0,56,0.00,,,0.00,meteohub,2014-01-02 10:06:00,
2014-01-02 04:11:00,5.2,-7.1,30.17,North,0,8.0,14.0,56,0.00,,,0.00,meteohub,2014-01-02 10:11:00,
2014-01-02 04:16:00,5.2,-7.1,30.17,North,0,11.0,12.0,56,0.00,,,0.00,meteohub,2014-01-02 10:16:00,
2014-01-02 04:21:00,5.2,-6.7,30.17,North,0,11.0,12.0,57,0.00,,,0.00,meteohub,2014-01-02 10:21:00,
2014-01-02 04:27:00,5.2,-6.7,30.17,North,0,11.0,12.0,57,0.00,,,0.00,meteohub,2014-01-02 10:27:00,
2014-01-02 04:32:00,5.2,-6.7,30.17,North,0,11.0,14.0,57,0.00,,,0.00,meteohub,2014-01-02 10:32:00,
2014-01-02 04:37:00,5.2,-6.7,30.18,North,0,11.0,14.0,57,0.00,,,0.00,meteohub,2014-01-02 10:37:00,
2014-01-02 04:42:00,5.2,-6.7,30.18,NW,315,6.0,14.0,57,0.00,,,0.00,meteohub,2014-01-02 10:42:00,
2014-01-02 04:47:00,5.2,-6.7,30.19,North,0,11.0,13.0,57,0.00,,,0.00,meteohub,2014-01-02 10:47:00,
2014-01-02 04:52:00,5.0,-6.9,30.18,North,0,14.0,14.0,57,0.00,,,0.00,meteohub,2014-01-02 10:52:00,
2014-01-02 04:57:00,5.0,-6.5,30.18,North,0,10.0,14.0,58,0.00,,,0.00,meteohub,2014-01-02 10:57:00,
2014-01-02 05:02:00,5.0,-6.5,30.18,North,0,10.0,14.0,58,0.00,,,0.00,meteohub,2014-01-02 11:02:00,
2014-01-02 05:07:00,5.0,-6.5,30.18,North,0,11.0,14.0,58,0.00,,,0.00,meteohub,2014-01-02 11:07:00,
2014-01-02 05:12:00,5.0,-6.5,30.18,North,0,12.0,12.0,58,0.00,,,0.00,meteohub,2014-01-02 11:12:00,
2014-01-02 05:17:00,5.0,-6.2,30.18,North,0,11.0,14.0,59,0.00,,,0.00,meteohub,2014-01-02 11:17:00,
2014-01-02 05:22:00,5.0,-6.2,30.18,North,0,12.0,14.0,59,0.00,,,0.00,meteohub,2014-01-02 11:22:00,
2014-01-02 05:27:00,5.0,-5.8,30.18,North,0,9.0,14.0,60,0.00,,,0.00,meteohub,2014-01-02 11:27:00,
2014-01-02 05:32:00,5.0,-5.8,30.18,North,0,8.0,13.0,60,0.00,,,0.00,meteohub,2014-01-02 11:32:00,
2014-01-02 05:37:00,5.0,-5.8,30.18,North,0,8.0,12.0,60,0.00,,,0.00,meteohub,2014-01-02 11:37:00,
2014-01-02 05:42:00,5.0,-5.8,30.19,North,0,11.0,12.0,60,0.00,,,0.00,meteohub,2014-01-02 11:42:00,
2014-01-02 05:47:00,5.0,-5.8,30.19,NNW,338,11.0,12.0,60,0.00,,,0.00,meteohub,2014-01-02 11:47:00,
2014-01-02 05:52:00,4.8,-6.0,30.18,North,0,11.0,11.0,60,0.00,,,0.00,meteohub,2014-01-02 11:52:00,
2014-01-02 05:57:00,4.8,-6.0,30.19,North,0,10.0,11.0,60,0.00,,,0.00,meteohub,2014-01-02 11:57:00,
2014-01-02 06:02:00,4.8,-6.0,30.19,North,0,8.0,11.0,60,0.00,,,0.00,meteohub,2014-01-02 12:02:00,
2014-01-02 06:07:00,4.8,-6.0,30.19,North,0,11.0,11.0,60,0.00,,,0.00,meteohub,2014-01-02 12:07:00,
2014-01-02 06:12:00,4.8,-5.6,30.19,North,0,11.0,11.0,61,0.00,,,0.00,meteohub,2014-01-02 12:12:00,
2014-01-02 06:17:00,4.8,-5.6,30.19,North,0,10.0,13.0,61,0.00,,,0.00,meteohub,2014-01-02 12:17:00,
2014-01-02 06:22:00,4.8,-5.6,30.19,North,0,8.0,13.0,61,0.00,,,0.00,meteohub,2014-01-02 12:22:00,
2014-01-02 06:27:00,4.8,-5.3,30.19,NE,45,10.0,13.0,62,0.00,,,0.00,meteohub,2014-01-02 12:27:00,
2014-01-02 06:32:00,4.8,-5.3,30.19,WNW,293,9.0,13.0,62,0.00,,,0.00,meteohub,2014-01-02 12:32:00,
2014-01-02 06:37:00,4.8,-5.3,30.19,North,0,11.0,13.0,62,0.00,,,0.00,meteohub,2014-01-02 12:37:00,
2014-01-02 06:42:00,4.6,-5.3,30.19,NW,315,10.0,13.0,63,0.00,,,0.00,meteohub,2014-01-02 12:42:00,
2014-01-02 06:47:00,4.6,-5.3,30.19,NW,315,10.0,12.0,63,0.00,,,0.00,meteohub,2014-01-02 12:47:00,
2014-01-02 06:52:00,4.6,-5.3,30.19,North,0,10.0,12.0,63,0.00,,,0.00,meteohub,2014-01-02 12:52:00,
2014-01-02 06:57:00,4.6,-5.3,30.19,North,0,9.0,12.0,63,0.00,,,0.00,meteohub,2014-01-02 12:57:00,
2014-01-02 07:02:00,4.6,-4.9,30.20,North,0,11.0,12.0,64,0.00,,,0.00,meteohub,2014-01-02 13:02:00,
2014-01-02 07:07:00,4.6,-4.9,30.19,NE,45,11.0,12.0,64,0.00,,,0.00,meteohub,2014-01-02 13:07:00,
2014-01-02 07:12:00,4.6,-4.5,30.20,North,0,8.0,12.0,65,0.00,,,0.00,meteohub,2014-01-02 13:12:00,
2014-01-02 07:17:00,4.5,-4.7,30.19,North,0,11.0,11.0,65,0.00,,,0.00,meteohub,2014-01-02 13:17:00,
2014-01-02 07:22:00,4.5,-4.7,30.20,North,0,11.0,11.0,65,0.00,,,0.00,meteohub,2014-01-02 13:22:00,
2014-01-02 07:27:00,4.5,-4.7,30.19,NW,315,11.0,12.0,65,0.00,,,0.00,meteohub,2014-01-02 13:27:00,
2014-01-02 07:32:00,4.5,-4.4,30.20,North,0,10.0,12.0,66,0.00,,,0.00,meteohub,2014-01-02 13:32:00,
2014-01-02 07:37:00,4.5,-4.4,30.20,North,0,10.0,14.0,66,0.00,,,0.00,meteohub,2014-01-02 13:37:00,
2014-01-02 07:42:00,4.5,-4.4,30.20,North,0,8.0,14.0,66,0.00,,,0.00,meteohub,2014-01-02 13:42:00,
2014-01-02 07:47:00,4.5,-4.4,30.20,North,0,12.0,14.0,66,0.00,,,0.00,meteohub,2014-01-02 13:47:00,
2014-01-02 07:52:00,4.5,-4.0,30.20,North,0,11.0,14.0,67,0.00,,,0.00,meteohub,2014-01-02 13:52:00,
2014-01-02 07:57:00,4.3,-4.2,30.20,North,0,11.0,14.0,67,0.00,,,0.00,meteohub,2014-01-02 13:57:00,
2014-01-02 08:02:00,4.3,-4.2,30.21,North,0,13.0,14.0,67,0.00,,,0.00,meteohub,2014-01-02 14:02:00,
2014-01-02 08:07:00,4.5,-3.8,30.21,North,0,12.0,15.0,68,0.00,,,0.00,meteohub,2014-01-02 14:07:00,
2014-01-02 08:12:00,4.3,-4.0,30.21,North,0,15.0,16.0,68,0.00,,,0.00,meteohub,2014-01-02 14:12:00,
2014-01-02 08:17:00,4.3,-4.0,30.21,North,0,14.0,16.0,68,0.00,,,0.00,meteohub,2014-01-02 14:17:00,
2014-01-02 08:22:00,4.3,-3.6,30.21,North,0,14.0,16.0,69,0.00,,,0.00,meteohub,2014-01-02 14:22:00,
2014-01-02 08:27:00,4.5,-3.5,30.21,North,0,14.0,15.0,69,0.00,,,0.00,meteohub,2014-01-02 14:27:00,
2014-01-02 08:32:00,4.3,-3.6,30.22,North,0,15.0,17.0,69,0.00,,,0.00,meteohub,2014-01-02 14:32:00,
2014-01-02 08:37:00,4.5,-3.5,30.22,North,0,11.0,17.0,69,0.00,,,0.00,meteohub,2014-01-02 14:37:00,
2014-01-02 08:42:00,4.5,-3.5,30.22,North,0,15.0,17.0,69,0.00,,,0.00,meteohub,2014-01-02 14:42:00,
2014-01-02 08:47:00,4.5,-3.5,30.22,North,0,12.0,15.0,69,0.00,,,0.00,meteohub,2014-01-02 14:47:00,
2014-01-02 08:52:00,4.6,-3.3,30.22,North,0,13.0,15.0,69,0.00,,,0.00,meteohub,2014-01-02 14:52:00,
2014-01-02 08:57:00,4.6,-3.3,30.22,North,0,15.0,16.0,69,0.00,,,0.00,meteohub,2014-01-02 14:57:00,
2014-01-02 09:02:00,4.6,-3.3,30.22,North,0,17.0,18.0,69,0.00,,,0.00,meteohub,2014-01-02 15:02:00,
2014-01-02 09:07:00,4.6,-2.9,30.22,North,0,15.0,18.0,70,0.00,,,0.00,meteohub,2014-01-02 15:07:00,
2014-01-02 09:12:00,4.8,-2.7,30.22,North,0,14.0,18.0,70,0.00,,,0.00,meteohub,2014-01-02 15:12:00,
2014-01-02 09:17:00,4.8,-2.7,30.22,North,0,14.0,17.0,70,0.00,,,0.00,meteohub,2014-01-02 15:17:00,
2014-01-02 09:22:00,4.8,-3.1,30.23,North,0,18.0,18.0,69,0.00,,,0.00,meteohub,2014-01-02 15:22:00,
2014-01-02 09:27:00,4.8,-3.1,30.23,North,0,17.0,18.0,69,0.00,,,0.00,meteohub,2014-01-02 15:27:00,
2014-01-02 09:32:00,4.8,-3.1,30.23,North,0,17.0,18.0,69,0.00,,,0.00,meteohub,2014-01-02 15:32:00,
2014-01-02 09:37:00,4.8,-3.1,30.23,North,0,17.0,20.0,69,0.00,,,0.00,meteohub,2014-01-02 15:37:00,
2014-01-02 09:42:00,4.8,-3.5,30.23,North,0,17.0,20.0,68,0.00,,,0.00,meteohub,2014-01-02 15:42:00,
2014-01-02 09:47:00,4.8,-3.6,30.24,North,0,16.0,18.0,67,0.00,,,0.00,meteohub,2014-01-02 15:47:00,
2014-01-02 09:52:00,4.8,-3.6,30.24,North,0,16.0,20.0,67,0.00,,,0.00,meteohub,2014-01-02 15:52:00,
2014-01-02 09:57:00,5.2,-3.6,30.24,North,0,17.0,20.0,66,0.00,,,0.00,meteohub,2014-01-02 15:57:00,
2014-01-02 10:02:00,5.2,-4.0,30.25,North,0,19.0,19.0,65,0.00,,,0.00,meteohub,2014-01-02 16:02:00,
2014-01-02 10:07:00,5.2,-4.0,30.25,North,0,19.0,20.0,65,0.00,,,0.00,meteohub,2014-01-02 16:07:00,
2014-01-02 10:12:00,5.5,-4.0,30.24,North,0,18.0,20.0,64,0.00,,,0.00,meteohub,2014-01-02 16:12:00,
2014-01-02 10:17:00,5.7,-4.2,30.24,North,0,21.0,21.0,63,0.00,,,0.00,meteohub,2014-01-02 16:17:00,
2014-01-02 10:22:00,5.4,-4.2,30.24,NNE,23,15.0,21.0,64,0.00,,,0.00,meteohub,2014-01-02 16:22:00,
2014-01-02 10:27:00,5.4,-4.5,30.24,North,0,16.0,21.0,63,0.00,,,0.00,meteohub,2014-01-02 16:27:00,
2014-01-02 10:32:00,5.5,-4.7,30.24,North,0,17.0,21.0,62,0.00,,,0.00,meteohub,2014-01-02 16:32:00,
2014-01-02 10:37:00,5.4,-4.9,30.24,North,0,21.0,21.0,62,0.00,,,0.00,meteohub,2014-01-02 16:37:00,
2014-01-02 10:42:00,5.4,-4.9,30.24,North,0,16.0,21.0,62,0.00,,,0.00,meteohub,2014-01-02 16:42:00,
2014-01-02 10:47:00,5.5,-4.7,30.24,North,0,16.0,21.0,62,0.00,,,0.00,meteohub,2014-01-02 16:47:00,
2014-01-02 10:52:00,6.3,-4.7,30.25,NE,45,15.0,21.0,60,0.00,,,0.00,meteohub,2014-01-02 16:52:00,
2014-01-02 10:57:00,6.4,-5.3,30.24,North,0,17.0,18.0,58,0.00,,,0.00,meteohub,2014-01-02 16:57:00,
2014-01-02 11:02:00,5.9,-5.3,30.24,North,0,16.0,18.0,59,0.00,,,0.00,meteohub,2014-01-02 17:02:00,
2014-01-02 11:07:00,5.9,-5.3,30.24,North,0,16.0,18.0,59,0.00,,,0.00,meteohub,2014-01-02 17:07:00,
2014-01-02 11:12:00,5.4,-5.4,30.24,North,0,17.0,18.0,60,0.00,,,0.00,meteohub,2014-01-02 17:12:00,
2014-01-02 11:17:00,5.4,-5.4,30.23,North,0,15.0,17.0,60,0.00,,,0.00,meteohub,2014-01-02 17:17:00,
2014-01-02 11:22:00,5.2,-5.6,30.24,North,0,17.0,19.0,60,0.00,,,0.00,meteohub,2014-01-02 17:22:00,
2014-01-02 11:27:00,5.4,-5.4,30.24,North,0,11.0,19.0,60,0.00,,,0.00,meteohub,2014-01-02 17:27:00,
2014-01-02 11:32:00,5.4,-5.4,30.24,North,0,16.0,19.0,60,0.00,,,0.00,meteohub,2014-01-02 17:32:00,
2014-01-02 11:37:00,5.5,-5.3,30.24,NNE,23,17.0,18.0,60,0.00,,,0.00,meteohub,2014-01-02 17:37:00,
2014-01-02 11:42:00,5.7,-5.4,30.24,North,0,16.0,17.0,59,0.00,,,0.00,meteohub,2014-01-02 17:42:00,
2014-01-02 11:47:00,6.3,-5.1,30.24,North,0,18.0,18.0,59,0.00,,,0.00,meteohub,2014-01-02 17:47:00,
2014-01-02 11:52:00,6.3,-5.4,30.23,North,0,18.0,19.0,58,0.00,,,0.00,meteohub,2014-01-02 17:52:00,
2014-01-02 11:57:00,6.3,-5.4,30.23,North,0,15.0,20.0,58,0.00,,,0.00,meteohub,2014-01-02 17:57:00,
2014-01-02 12:02:00,6.4,-5.6,30.23,North,0,16.0,20.0,57,0.00,,,0.00,meteohub,2014-01-02 18:02:00,
2014-01-02 12:07:00,6.6,-5.4,30.23,North,0,16.0,19.0,57,0.00,,,0.00,meteohub,2014-01-02 18:07:00,
2014-01-02 12:12:00,7.0,-5.4,30.23,NE,45,16.0,18.0,56,0.00,,,0.00,meteohub,2014-01-02 18:12:00,
2014-01-02 12:17:00,7.0,-5.8,30.22,NNE,23,16.0,17.0,55,0.00,,,0.00,meteohub,2014-01-02 18:17:00,
2014-01-02 12:22:00,7.0,-5.4,30.23,North,0,14.0,18.0,56,0.00,,,0.00,meteohub,2014-01-02 18:22:00,
2014-01-02 12:27:00,7.2,-5.3,30.23,North,0,13.0,18.0,56,0.00,,,0.00,meteohub,2014-01-02 18:27:00,
2014-01-02 12:32:00,7.0,-5.8,30.22,NE,45,17.0,18.0,55,0.00,,,0.00,meteohub,2014-01-02 18:32:00,
2014-01-02 12:37:00,7.0,-5.8,30.23,North,0,15.0,18.0,55,0.00,,,0.00,meteohub,2014-01-02 18:37:00,
2014-01-02 12:42:00,7.7,-5.4,30.23,North,0,15.0,18.0,54,0.00,,,0.00,meteohub,2014-01-02 18:42:00,
2014-01-02 12:47:00,7.9,-5.6,30.23,North,0,16.0,20.0,53,0.00,,,0.00,meteohub,2014-01-02 18:47:00,
2014-01-02 12:52:00,8.2,-5.4,30.23,NNE,23,13.0,20.0,53,0.00,,,0.00,meteohub,2014-01-02 18:52:00,
2014-01-02 12:57:00,8.1,-6.0,30.22,North,0,15.0,20.0,52,0.00,,,0.00,meteohub,2014-01-02 18:57:00,
2014-01-02 13:02:00,8.1,-6.0,30.22,North,0,16.0,17.0,52,0.00,,,0.00,meteohub,2014-01-02 19:02:00,
2014-01-02 13:07:00,7.9,-6.2,30.23,North,0,15.0,17.0,52,0.00,,,0.00,meteohub,2014-01-02 19:07:00,
2014-01-02 13:12:00,8.1,-6.0,30.23,NE,45,16.0,17.0,52,0.00,,,0.00,meteohub,2014-01-02 19:12:00,
2014-01-02 13:17:00,8.1,-6.0,30.23,North,0,14.0,17.0,52,0.00,,,0.00,meteohub,2014-01-02 19:17:00,
2014-01-02 13:22:00,8.2,-5.8,30.23,North,0,15.0,17.0,52,0.00,,,0.00,meteohub,2014-01-02 19:22:00,
2014-01-02 13:27:00,8.6,-6.2,30.23,North,0,16.0,17.0,50,0.00,,,0.00,meteohub,2014-01-02 19:27:00,
2014-01-02 13:32:00,8.8,-6.0,30.23,North,0,12.0,16.0,50,0.00,,,0.00,meteohub,2014-01-02 19:32:00,
2014-01-02 13:37:00,8.8,-6.5,30.23,NNE,23,12.0,16.0,49,0.00,,,0.00,meteohub,2014-01-02 19:37:00,
2014-01-02 13:42:00,8.8,-6.0,30.23,North,0,11.0,16.0,50,0.00,,,0.00,meteohub,2014-01-02 19:42:00,
2014-01-02 13:47:00,9.1,-5.8,30.24,North,0,9.0,13.0,50,0.00,,,0.00,meteohub,2014-01-02 19:47:00,
2014-01-02 13:52:00,9.1,-6.5,30.24,North,0,12.0,13.0,48,0.00,,,0.00,meteohub,2014-01-02 19:52:00,
2014-01-02 13:57:00,9.0,-6.0,30.24,North,0,9.0,13.0,50,0.00,,,0.00,meteohub,2014-01-02 19:57:00,
2014-01-02 14:02:00,8.8,-6.5,30.24,North,0,9.0,15.0,49,0.00,,,0.00,meteohub,2014-01-02 20:02:00,
2014-01-02 14:07:00,8.8,-6.5,30.25,North,0,12.0,15.0,49,0.00,,,0.00,meteohub,2014-01-02 20:07:00,
2014-01-02 14:12:00,9.3,-6.3,30.25,North,0,10.0,13.0,48,0.00,,,0.00,meteohub,2014-01-02 20:12:00,
2014-01-02 14:17:00,9.1,-7.1,30.25,North,0,15.0,15.0,47,0.00,,,0.00,meteohub,2014-01-02 20:17:00,
2014-01-02 14:22:00,9.1,-7.1,30.25,North,0,15.0,15.0,47,0.00,,,0.00,meteohub,2014-01-02 20:22:00,
2014-01-02 14:27:00,8.8,-6.9,30.25,North,0,12.0,15.0,48,0.00,,,0.00,meteohub,2014-01-02 20:27:00,
2014-01-02 14:32:00,8.8,-6.9,30.25,North,0,8.0,15.0,48,0.00,,,0.00,meteohub,2014-01-02 20:32:00,
2014-01-02 14:37:00,8.8,-7.8,30.25,North,0,15.0,15.0,46,0.00,,,0.00,meteohub,2014-01-02 20:37:00,
2014-01-02 14:42:00,8.8,-7.8,30.25,North,0,11.0,17.0,46,0.00,,,0.00,meteohub,2014-01-02 20:42:00,
2014-01-02 14:47:00,9.0,-7.6,30.25,North,0,10.0,17.0,46,0.00,,,0.00,meteohub,2014-01-02 20:47:00,
2014-01-02 14:52:00,9.0,-8.1,30.25,North,0,12.0,17.0,45,0.00,,,0.00,meteohub,2014-01-02 20:52:00,
2014-01-02 14:57:00,9.1,-7.4,30.26,NW,315,8.0,15.0,46,0.00,,,0.00,meteohub,2014-01-02 20:57:00,
2014-01-02 15:02:00,9.3,-7.8,30.26,North,0,10.0,14.0,45,0.00,,,0.00,meteohub,2014-01-02 21:02:00,
2014-01-02 15:07:00,9.0,-8.1,30.27,North,0,8.0,12.0,45,0.00,,,0.00,meteohub,2014-01-02 21:07:00,
2014-01-02 15:12:00,9.1,-8.0,30.26,North,0,10.0,11.0,45,0.00,,,0.00,meteohub,2014-01-02 21:12:00,
2014-01-02 15:17:00,9.0,-8.1,30.27,North,0,12.0,14.0,45,0.00,,,0.00,meteohub,2014-01-02 21:17:00,
2014-01-02 15:22:00,9.0,-8.1,30.27,North,0,12.0,14.0,45,0.00,,,0.00,meteohub,2014-01-02 21:22:00,
2014-01-02 15:27:00,9.1,-8.0,30.27,North,0,11.0,14.0,45,0.00,,,0.00,meteohub,2014-01-02 21:27:00,
2014-01-02 15:32:00,9.1,-8.0,30.27,North,0,7.0,12.0,45,0.00,,,0.00,meteohub,2014-01-02 21:32:00,
2014-01-02 15:37:00,9.0,-8.1,30.27,North,0,8.0,12.0,45,0.00,,,0.00,meteohub,2014-01-02 21:37:00,
2014-01-02 15:42:00,8.8,-8.1,30.27,North,0,10.0,12.0,45,0.00,,,0.00,meteohub,2014-01-02 21:42:00,
2014-01-02 15:47:00,8.4,-8.1,30.27,North,0,13.0,13.0,46,0.00,,,0.00,meteohub,2014-01-02 21:47:00,
2014-01-02 15:52:00,8.1,-8.5,30.28,North,0,12.0,13.0,46,0.00,,,0.00,meteohub,2014-01-02 21:52:00,
2014-01-02 15:57:00,8.1,-8.5,30.28,North,0,15.0,16.0,46,0.00,,,0.00,meteohub,2014-01-02 21:57:00,
2014-01-02 16:02:00,7.9,-8.7,30.28,North,0,11.0,16.0,46,0.00,,,0.00,meteohub,2014-01-02 22:02:00,
2014-01-02 16:07:00,8.1,-8.0,30.28,NW,315,10.0,16.0,47,0.00,,,0.00,meteohub,2014-01-02 22:07:00,
2014-01-02 16:12:00,7.9,-8.1,30.28,NW,315,14.0,15.0,47,0.00,,,0.00,meteohub,2014-01-02 22:12:00,
2014-01-02 16:17:00,7.5,-8.5,30.28,North,0,8.0,14.0,47,0.00,,,0.00,meteohub,2014-01-02 22:17:00,
2014-01-02 16:22:00,7.2,-8.3,30.29,North,0,8.0,14.0,48,0.00,,,0.00,meteohub,2014-01-02 22:22:00,
2014-01-02 16:27:00,6.8,-8.3,30.29,WNW,293,9.0,14.0,49,0.00,,,0.00,meteohub,2014-01-02 22:27:00,
2014-01-02 16:32:00,6.4,-8.7,30.29,NNW,338,8.0,11.0,49,0.00,,,0.00,meteohub,2014-01-02 22:32:00,
2014-01-02 16:37:00,6.3,-8.9,30.29,NW,315,9.0,11.0,49,0.00,,,0.00,meteohub,2014-01-02 22:37:00,
2014-01-02 16:42:00,6.3,-8.9,30.29,North,0,5.0,11.0,49,0.00,,,0.00,meteohub,2014-01-02 22:42:00,
2014-01-02 16:47:00,6.1,-9.0,30.29,NW,315,6.0,9.0,49,0.00,,,0.00,meteohub,2014-01-02 22:47:00,
2014-01-02 16:52:00,6.1,-9.0,30.30,North,0,3.0,9.0,49,0.00,,,0.00,meteohub,2014-01-02 22:52:00,
2014-01-02 16:57:00,5.9,-9.2,30.30,North,0,4.0,7.0,49,0.00,,,0.00,meteohub,2014-01-02 22:57:00,
2014-01-02 17:02:00,5.7,-8.9,30.30,NW,315,6.0,7.0,50,0.00,,,0.00,meteohub,2014-01-02 23:02:00,
2014-01-02 17:07:00,5.5,-9.4,30.30,NE,45,5.0,6.0,49,0.00,,,0.00,meteohub,2014-01-02 23:07:00,
2014-01-02 17:12:00,5.4,-10.1,30.30,North,0,6.0,7.0,48,0.00,,,0.00,meteohub,2014-01-02 23:12:00,
2014-01-02 17:17:00,5.2,-10.3,30.30,NNW,338,6.0,8.0,48,0.00,,,0.00,meteohub,2014-01-02 23:17:00,
2014-01-02 17:22:00,5.0,-10.8,30.30,NW,315,4.0,8.0,47,0.00,,,0.00,meteohub,2014-01-02 23:22:00,
2014-01-02 17:27:00,5.0,-11.2,30.30,North,0,7.0,8.0,46,0.00,,,0.00,meteohub,2014-01-02 23:27:00,
2014-01-02 17:32:00,4.8,-11.4,30.31,North,0,7.0,8.0,46,0.00,,,0.00,meteohub,2014-01-02 23:32:00,
2014-01-02 17:37:00,4.6,-11.6,30.31,NNW,338,6.0,8.0,46,0.00,,,0.00,meteohub,2014-01-02 23:37:00,
2014-01-02 17:42:00,4.5,-11.7,30.31,North,0,6.0,8.0,46,0.00,,,0.00,meteohub,2014-01-02 23:42:00,
2014-01-02 17:47:00,4.5,-11.7,30.31,NW,315,4.0,7.0,46,0.00,,,0.00,meteohub,2014-01-02 23:47:00,
2014-01-02 17:52:00,4.5,-11.7,30.32,NW,315,6.0,7.0,46,0.00,,,0.00,meteohub,2014-01-02 23:52:00,
2014-01-02 17:57:00,4.3,-11.9,30.31,North,0,5.0,7.0,46,0.00,,,0.00,meteohub,2014-01-02 23:57:00,
2014-01-02 18:02:00,4.1,-12.1,30.32,NNW,338,4.0,6.0,46,0.00,,,0.00,meteohub,2014-01-03 00:02:00,
2014-01-02 18:07:00,3.6,-12.1,30.32,North,0,7.0,7.0,47,0.00,,,0.00,meteohub,2014-01-03 00:07:00,
2014-01-02 18:12:00,3.2,-12.5,30.31,North,0,8.0,8.0,47,0.00,,,0.00,meteohub,2014-01-03 00:12:00,
2014-01-02 18:17:00,2.8,-12.8,30.31,North,0,8.0,8.0,47,0.00,,,0.00,meteohub,2014-01-03 00:17:00,
2014-01-02 18:22:00,2.7,-13.0,30.31,North,0,9.0,9.0,47,0.00,,,0.00,meteohub,2014-01-03 00:22:00,
2014-01-02 18:27:00,2.7,-13.0,30.31,North,0,9.0,11.0,47,0.00,,,0.00,meteohub,2014-01-03 00:27:00,
2014-01-02 18:32:00,3.0,-12.6,30.31,North,0,11.0,11.0,47,0.00,,,0.00,meteohub,2014-01-03 00:32:00,
2014-01-02 18:37:00,3.0,-13.0,30.32,North,0,5.0,11.0,46,0.00,,,0.00,meteohub,2014-01-03 00:37:00,
2014-01-02 18:42:00,2.5,-13.2,30.31,NNW,338,10.0,11.0,47,0.00,,,0.00,meteohub,2014-01-03 00:42:00,
2014-01-02 18:47:00,2.3,-13.4,30.31,North,0,8.0,11.0,47,0.00,,,0.00,meteohub,2014-01-03 00:47:00,
2014-01-02 18:52:00,2.3,-13.7,30.31,North,0,10.0,11.0,46,0.00,,,0.00,meteohub,2014-01-03 00:52:00,
2014-01-02 18:57:00,2.1,-13.9,30.31,North,0,9.0,11.0,46,0.00,,,0.00,meteohub,2014-01-03 00:57:00,
2014-01-02 19:02:00,2.1,-13.9,30.31,North,0,9.0,11.0,46,0.00,,,0.00,meteohub,2014-01-03 01:02:00,
2014-01-02 19:07:00,1.9,-14.1,30.31,North,0,11.0,11.0,46,0.00,,,0.00,meteohub,2014-01-03 01:07:00,
2014-01-02 19:12:00,1.8,-14.3,30.32,North,0,11.0,11.0,46,0.00,,,0.00,meteohub,2014-01-03 01:12:00,
2014-01-02 19:17:00,1.8,-14.3,30.32,North,0,11.0,11.0,46,0.00,,,0.00,meteohub,2014-01-03 01:17:00,
2014-01-02 19:22:00,1.9,-14.1,30.32,North,0,13.0,13.0,46,0.00,,,0.00,meteohub,2014-01-03 01:22:00,
2014-01-02 19:27:00,1.8,-14.3,30.32,North,0,8.0,13.0,46,0.00,,,0.00,meteohub,2014-01-03 01:27:00,
2014-01-02 19:32:00,1.2,-14.3,30.31,North,0,7.0,13.0,47,0.00,,,0.00,meteohub,2014-01-03 01:32:00,
2014-01-02 19:37:00,1.2,-14.3,30.32,North,0,5.0,13.0,47,0.00,,,0.00,meteohub,2014-01-03 01:37:00,
2014-01-02 19:42:00,0.9,-14.6,30.32,North,0,5.0,8.0,47,0.00,,,0.00,meteohub,2014-01-03 01:42:00,
2014-01-02 19:47:00,0.7,-14.4,30.31,North,0,5.0,7.0,48,0.00,,,0.00,meteohub,2014-01-03 01:47:00,
2014-01-02 19:52:00,0.7,-14.8,30.32,North,0,5.0,7.0,47,0.00,,,0.00,meteohub,2014-01-03 01:52:00,
2014-01-02 19:57:00,0.7,-14.4,30.31,North,0,5.0,6.0,48,0.00,,,0.00,meteohub,2014-01-03 01:57:00,
2014-01-02 20:02:00,0.5,-14.6,30.32,North,0,6.0,6.0,48,0.00,,,0.00,meteohub,2014-01-03 02:02:00,
2014-01-02 20:07:00,0.5,-14.6,30.32,North,0,5.0,6.0,48,0.00,,,0.00,meteohub,2014-01-03 02:07:00,
2014-01-02 20:12:00,0.5,-14.6,30.31,North,0,6.0,8.0,48,0.00,,,0.00,meteohub,2014-01-03 02:12:00,
2014-01-02 20:17:00,0.7,-14.4,30.31,North,0,6.0,8.0,48,0.00,,,0.00,meteohub,2014-01-03 02:17:00,
2014-01-02 20:22:00,0.7,-14.4,30.32,North,0,5.0,8.0,48,0.00,,,0.00,meteohub,2014-01-03 02:22:00,
2014-01-02 20:27:00,0.7,-14.4,30.32,North,0,5.0,7.0,48,0.00,,,0.00,meteohub,2014-01-03 02:27:00,
2014-01-02 20:32:00,0.7,-14.1,30.32,WNW,293,6.0,7.0,49,0.00,,,0.00,meteohub,2014-01-03 02:32:00,
2014-01-02 20:38:00,0.9,-14.3,30.32,West,270,4.0,6.0,48,0.00,,,0.00,meteohub,2014-01-03 02:38:00,
2014-01-02 20:43:00,0.9,-14.3,30.33,North,0,4.0,6.0,48,0.00,,,0.00,meteohub,2014-01-03 02:43:00,
2014-01-02 20:48:00,0.9,-13.9,30.32,WNW,293,6.0,6.0,49,0.00,,,0.00,meteohub,2014-01-03 02:48:00,
2014-01-02 20:53:00,0.7,-14.1,30.32,West,270,4.0,6.0,49,0.00,,,0.00,meteohub,2014-01-03 02:53:00,
2014-01-02 20:58:00,0.7,-14.1,30.33,East,90,4.0,6.0,49,0.00,,,0.00,meteohub,2014-01-03 02:58:00,
2014-01-02 21:03:00,0.7,-14.1,30.32,NNW,338,4.0,6.0,49,0.00,,,0.00,meteohub,2014-01-03 03:03:00,
2014-01-02 21:08:00,0.9,-13.9,30.32,NW,315,4.0,6.0,49,0.00,,,0.00,meteohub,2014-01-03 03:08:00,
2014-01-02 21:13:00,0.9,-13.9,30.32,NW,315,4.0,6.0,49,0.00,,,0.00,meteohub,2014-01-03 03:13:00,
2014-01-02 21:18:00,0.7,-14.1,30.32,NW,315,3.0,5.0,49,0.00,,,0.00,meteohub,2014-01-03 03:18:00,
2014-01-02 21:23:00,0.5,-14.1,30.32,North,0,4.0,5.0,49,0.00,,,0.00,meteohub,2014-01-03 03:23:00,
2014-01-02 21:28:00,0.5,-13.7,30.33,NNW,338,2.0,5.0,50,0.00,,,0.00,meteohub,2014-01-03 03:28:00,
2014-01-02 21:33:00,0.5,-13.7,30.34,NW,315,5.0,5.0,50,0.00,,,0.00,meteohub,2014-01-03 03:33:00,
2014-01-02 21:38:00,0.5,-13.7,30.33,West,270,4.0,5.0,50,0.00,,,0.00,meteohub,2014-01-03 03:38:00,
2014-01-02 21:43:00,0.7,-13.5,30.33,NNW,338,4.0,5.0,50,0.00,,,0.00,meteohub,2014-01-03 03:43:00,
2014-01-02 21:49:00,0.7,-13.5,30.33,West,270,4.0,5.0,50,0.00,,,0.00,meteohub,2014-01-03 03:49:00,
2014-01-02 21:54:00,0.3,-13.9,30.34,West,270,5.0,6.0,50,0.00,,,0.00,meteohub,2014-01-03 03:54:00,
2014-01-02 21:59:00,0.3,-13.9,30.33,NNW,338,5.0,6.0,50,0.00,,,0.00,meteohub,2014-01-03 03:59:00,
2014-01-02 22:04:00,0.3,-13.9,30.33,South,180,2.0,6.0,50,0.00,,,0.00,meteohub,2014-01-03 04:04:00,
2014-01-02 22:09:00,0.5,-13.7,30.34,NW,315,4.0,6.0,50,0.00,,,0.00,meteohub,2014-01-03 04:09:00,
2014-01-02 22:14:00,0.5,-13.7,30.34,West,270,7.0,7.0,50,0.00,,,0.00,meteohub,2014-01-03 04:14:00,
2014-01-02 22:19:00,0.5,-13.7,30.33,NW,315,5.0,7.0,50,0.00,,,0.00,meteohub,2014-01-03 04:19:00,
2014-01-02 22:24:00,0.5,-13.7,30.32,NNW,338,5.0,7.0,50,0.00,,,0.00,meteohub,2014-01-03 04:24:00,
2014-01-02 22:29:00,0.7,-13.5,30.33,NW,315,6.0,7.0,50,0.00,,,0.00,meteohub,2014-01-03 04:29:00,
2014-01-02 22:34:00,0.9,-13.4,30.32,North,0,6.0,6.0,50,0.00,,,0.00,meteohub,2014-01-03 04:34:00,
2014-01-02 22:39:00,0.9,-13.4,30.32,NW,315,4.0,7.0,50,0.00,,,0.00,meteohub,2014-01-03 04:39:00,
2014-01-02 22:44:00,0.7,-13.5,30.31,North,0,4.0,7.0,50,0.00,,,0.00,meteohub,2014-01-03 04:44:00,
2014-01-02 22:49:00,0.5,-13.7,30.32,NW,315,4.0,7.0,50,0.00,,,0.00,meteohub,2014-01-03 04:49:00,
2014-01-02 22:54:00,0.3,-13.9,30.32,NW,315,4.0,6.0,50,0.00,,,0.00,meteohub,2014-01-03 04:54:00,
2014-01-02 23:00:00,0.1,-13.7,30.32,NW,315,4.0,6.0,51,0.00,,,0.00,meteohub,2014-01-03 05:00:00,
2014-01-02 23:01:00,0.1,-13.7,30.31,North,0,4.0,6.0,51,0.00,,,0.00,meteohub,2014-01-03 05:01:00,
2014-01-02 23:02:00,0.1,-13.7,30.31,West,270,4.0,6.0,51,0.00,,,0.00,meteohub,2014-01-03 05:02:00,
2014-01-02 23:06:00,0.1,-13.7,30.32,West,270,4.0,6.0,51,0.00,,,0.00,meteohub,2014-01-03 05:06:00,
2014-01-02 23:08:00,0.1,-13.7,30.32,West,270,3.0,6.0,51,0.00,,,0.00,meteohub,2014-01-03 05:08:00,
2014-01-02 23:13:00,0.0,-13.9,30.32,North,0,4.0,4.0,51,0.00,,,0.00,meteohub,2014-01-03 05:13:00,
2014-01-02 23:18:00,0.0,-13.5,30.32,NW,315,4.0,5.0,52,0.00,,,0.00,meteohub,2014-01-03 05:18:00,
2014-01-02 23:23:00,0.0,-13.5,30.32,North,0,4.0,6.0,52,0.00,,,0.00,meteohub,2014-01-03 05:23:00,
2014-01-02 23:28:00,0.0,-13.5,30.32,West,270,4.0,6.0,52,0.00,,,0.00,meteohub,2014-01-03 05:28:00,
2014-01-02 23:33:00,0.0,-13.5,30.32,NW,315,4.0,6.0,52,0.00,,,0.00,meteohub,2014-01-03 05:33:00,
2014-01-02 23:38:00,-0.2,-13.7,30.32,WNW,293,4.0,5.0,52,0.00,,,0.00,meteohub,2014-01-03 05:38:00,
2014-01-02 23:43:00,-0.2,-13.4,30.32,North,0,6.0,6.0,53,0.00,,,0.00,meteohub,2014-01-03 05:43:00,
2014-01-02 23:48:00,-0.2,-13.4,30.31,NW,315,4.0,4.0,53,0.00,,,0.00,meteohub,2014-01-03 05:48:00,
2014-01-02 23:53:00,0.0,-13.2,30.31,NW,315,4.0,6.0,53,0.00,,,0.00,meteohub,2014-01-03 05:53:00,
2014-01-02 23:58:00,0.0,-13.2,30.31,NW,315,6.0,6.0,53,0.00,,,0.00,meteohub,2014-01-03 05:58:00,